This is the latest recevied weather packets stored in our database for station/object DJ4RO-13. If no packets are shown the sender has not sent any weather packets the latest 10 day(s).
| Time | Temp. | Humidity | Pressure | Rain* | Wind** | Luminosity | Snow |
|---|---|---|---|---|---|---|---|
| 1777314429 | 12.22° C | 55% | 1027.6 hPa | 0 mm | - | 2 W/m² | - |
| 1777314110 | 12.22° C | 53% | 1027.5 hPa | 0 mm | - | 3 W/m² | - |
| 1777313789 | 12.22° C | 51% | 1027.4 hPa | 0 mm | - | 5 W/m² | - |
| 1777313469 | 12.78° C | 49% | 1027.3 hPa | 0 mm | - | 6 W/m² | - |
| 1777313148 | 12.78° C | 43% | 1027.2 hPa | 0 mm | - | 8 W/m² | - |
| 1777312829 | 12.78° C | 41% | 1027.5 hPa | 0 mm | - | 9 W/m² | - |
| 1777312509 | 13.33° C | 41% | 1027.2 hPa | 0 mm | - | 11 W/m² | - |
| 1777312188 | 13.33° C | 42% | 1027.3 hPa | 0 mm | - | 14 W/m² | - |
| 1777311869 | 13.33° C | 43% | 1027.2 hPa | 0 mm | - | 18 W/m² | - |
| 1777311549 | 13.89° C | 41% | 1027.2 hPa | 0 mm | - | 23 W/m² | - |
| 1777311229 | 13.89° C | 43% | 1027.2 hPa | 0 mm | - | 27 W/m² | - |
| 1777310909 | 13.89° C | 42% | 1026.9 hPa | 0 mm | - | 29 W/m² | - |
| 1777310589 | 13.89° C | 42% | 1027.2 hPa | 0 mm | - | 31 W/m² | - |
| 1777310269 | 13.89° C | 42% | 1027.2 hPa | 0 mm | - | 32 W/m² | - |
| 1777309949 | 14.44° C | 42% | 1027.3 hPa | 0 mm | - | 33 W/m² | - |
| 1777309629 | 14.44° C | 41% | 1027 hPa | 0 mm | - | 36 W/m² | - |
| 1777309308 | 14.44° C | 42% | 1027.1 hPa | 0 mm | - | 39 W/m² | - |
| 1777308990 | 14.44° C | 41% | 1027 hPa | 0 mm | - | 43 W/m² | - |
| 1777308669 | 14.44° C | 40% | 1027.3 hPa | 0 mm | - | 50 W/m² | - |
| 1777308348 | 14.44° C | 40% | 1027.1 hPa | 0 mm | - | 57 W/m² | - |
| 1777308029 | 14.44° C | 40% | 1027 hPa | 0 mm | - | 64 W/m² | - |
| 1777307709 | 15° C | 40% | 1027.1 hPa | 0 mm | - | 70 W/m² | - |
| 1777307389 | 15° C | 41% | 1027 hPa | 0 mm | - | 76 W/m² | - |
| 1777307069 | 15° C | 40% | 1027 hPa | 0 mm | - | 81 W/m² | - |
| 1777306749 | 15° C | 41% | 1027.2 hPa | 0 mm | - | 83 W/m² | - |
* Rain latest hour (hover to see other rain measurements)
** Current wind speed in m/s (hover to see current wind gust speed)